Location: *
(43.6428°N, 11.5461°E)
Time: 10:27:31
(UTC+00:00)

SKYMED 3 - Pass Details

Date: 21 October 2019
Orbit: 621 x 623 km, 97.9° (Epoch: 12 November)

Event Time Altitude Azimuth Distance (km) Brightness Sun altitude
Rises 17:14:14 0° 14° (NNE) 2,912 7.8 -10.2°
Reaches altitude 10° 17:16:27 10° 17° (NNE) 2,001 7.0 -10.6°
Maximum altitude 17:20:47 72° 101° (ESE) 657 4.5 -11.4°
Drops below altitude 10° 17:25:06 10° 187° (S) 1,984 7.3 -12.2°
Sets 17:27:17 0° 189° (S) 2,886 8.2 -12.6°
